TimeMDT,TemperatureF,Dew PointF,Humidity,Sea Level PressureIn,VisibilityMPH,Wind Direction,Wind SpeedMPH,Gust SpeedMPH,PrecipitationIn,Events,Conditions,WindDirDegrees,DateUTC
12:53 AM,39.9,21.9,49,30.23,10.0,Calm,Calm,-,N/A,,Clear,0,2013-10-22 06:53:00
1:53 AM,39.9,21.9,49,30.23,10.0,ENE,4.6,-,N/A,,Clear,60,2013-10-22 07:53:00
2:53 AM,37.9,21.9,53,30.23,10.0,NNE,8.1,-,N/A,,Clear,20,2013-10-22 08:53:00
3:53 AM,37.9,21.9,53,30.22,10.0,North,5.8,-,N/A,,Clear,10,2013-10-22 09:53:00
4:53 AM,37.9,23.0,55,30.23,10.0,NE,8.1,-,N/A,,Clear,40,2013-10-22 10:53:00
5:53 AM,35.1,21.9,59,30.25,10.0,NNE,3.5,-,N/A,,Clear,30,2013-10-22 11:53:00
6:53 AM,36.0,21.9,57,30.28,10.0,NNE,8.1,-,N/A,,Clear,20,2013-10-22 12:53:00
7:53 AM,35.1,21.9,59,30.32,8.0,North,5.8,-,N/A,,Clear,360,2013-10-22 13:53:00
8:53 AM,45.0,25.0,46,30.31,10.0,Calm,Calm,-,N/A,,Clear,0,2013-10-22 14:53:00
9:53 AM,46.9,25.0,42,30.32,10.0,Calm,Calm,-,N/A,,Clear,0,2013-10-22 15:53:00
10:53 AM,52.0,24.1,34,30.29,10.0,Calm,Calm,-,N/A,,Clear,0,2013-10-22 16:53:00
11:53 AM,55.9,21.9,27,30.27,10.0,ESE,5.8,-,N/A,,Clear,110,2013-10-22 17:53:00
12:53 PM,57.9,21.9,25,30.26,10.0,SSE,6.9,-,N/A,,Clear,160,2013-10-22 18:53:00
1:53 PM,60.1,19.0,20,30.23,10.0,SSW,3.5,-,N/A,,Clear,200,2013-10-22 19:53:00
2:53 PM,62.1,19.0,19,30.21,10.0,ESE,5.8,-,N/A,,Clear,120,2013-10-22 20:53:00
3:53 PM,62.1,19.0,19,30.20,10.0,Calm,Calm,-,N/A,,Clear,0,2013-10-22 21:53:00
4:53 PM,63.0,19.9,19,30.18,10.0,Calm,Calm,-,N/A,,Clear,0,2013-10-22 22:53:00
5:53 PM,62.1,21.0,21,30.19,10.0,SE,5.8,-,N/A,,Clear,130,2013-10-22 23:53:00
6:53 PM,55.9,21.9,27,30.22,10.0,East,4.6,-,N/A,,Clear,100,2013-10-23 00:53:00
7:53 PM,46.9,21.9,37,30.26,10.0,NNE,8.1,-,N/A,,Clear,30,2013-10-23 01:53:00
8:53 PM,46.0,21.9,39,30.23,10.0,North,9.2,-,N/A,,Clear,10,2013-10-23 02:53:00
9:53 PM,45.0,21.9,40,30.23,10.0,NNE,9.2,-,N/A,,Clear,20,2013-10-23 03:53:00
10:53 PM,43.0,21.9,43,30.21,10.0,NNE,9.2,-,N/A,,Clear,20,2013-10-23 04:53:00
11:53 PM,42.1,21.9,45,30.20,10.0,North,10.4,-,N/A,,Clear,10,2013-10-23 05:53:00